When you browse on this site, cookies collect data to enhance your experience and personalize the content and advertising you see.
Visit our Privacy Policy to learn more. By continuing to use the site, you agree to this use of cookies and data.
  • In Lithuania
  • List of Countries
  • For 7 days
  • Water Temperature
  • Satellite Maps
  • Weather Map
  • Weather Widgets
  • user-avatar
    Login

    Hourly Weather Cabimas

    Today, 19 January, Saturday

    Time Temperature Precipitation Wind Pressure Humidity
    00:00 +29°C° 0 mm 4 mps 759 mmHg 67%
    01:00 +28°C° 0 mm 3 mps 759 mmHg 69%
    02:00 +28°C° 0 mm 3 mps 758 mmHg 70%
    03:00 +27°C° 0 mm 3 mps 758 mmHg 71%
    04:00 +27°C° 0 mm 3 mps 758 mmHg 72%
    05:00 +27°C° 0 mm 3 mps 759 mmHg 71%
    06:00 +28°C° 0 mm 2 mps 759 mmHg 70%
    07:00 +28°C° 0 mm 2 mps 759 mmHg 69%
    08:00 +30°C° 0 mm 2 mps 759 mmHg 62%
    09:00 +32°C° 0 mm 1 mps 759 mmHg 54%
    10:00 +35°C° 0 mm 1 mps 760 mmHg 46%
    11:00 +37°C° 0 mm 2 mps 759 mmHg 44%
    12:00 +37°C° 0 mm 2 mps 758 mmHg 42%
    13:00 +38°C° 0 mm 3 mps 757 mmHg 40%
    14:00 +37°C° 0 mm 3 mps 757 mmHg 42%
    15:00 +37°C° 0 mm 3 mps 756 mmHg 44%
    16:00 +36°C° 0 mm 4 mps 756 mmHg 46%
    17:00 +35°C° 0 mm 4 mps 756 mmHg 51%
    18:00 +34°C° 0 mm 5 mps 757 mmHg 55%
    19:00 +32°C° 0 mm 6 mps 757 mmHg 60%
    20:00 +32°C° 0 mm 5 mps 757 mmHg 60%
    21:00 +30°C° 0 mm 5 mps 758 mmHg 60%
    22:00 +30°C° 0 mm 5 mps 758 mmHg 60%
    23:00 +30°C° 0 mm 4 mps 758 mmHg 62%

    Tomorrow, 20 January, Sunday

    Time Temperature Precipitation Wind Pressure Humidity
    00:00 +29°C° 0 mm 3 mps 758 mmHg 64%
    01:00 +28°C° 0 mm 3 mps 758 mmHg 66%
    02:00 +28°C° 0 mm 2 mps 758 mmHg 67%
    03:00 +28°C° 0 mm 2 mps 758 mmHg 67%
    04:00 +27°C° 0 mm 2 mps 758 mmHg 68%
    05:00 +27°C° 0 mm 2 mps 758 mmHg 67%
    06:00 +28°C° 0 mm 2 mps 759 mmHg 67%
    07:00 +28°C° 0 mm 1 mps 759 mmHg 66%
    08:00 +30°C° 0 mm 1 mps 759 mmHg 59%
    09:00 +33°C° 0 mm 1 mps 759 mmHg 52%
    10:00 +35°C° 0 mm 1 mps 759 mmHg 46%
    11:00 +36°C° 0 mm 1 mps 759 mmHg 43%
    12:00 +37°C° 0 mm 2 mps 758 mmHg 41%
    13:00 +38°C° 0 mm 2 mps 757 mmHg 39%
    14:00 +38°C° 0 mm 3 mps 756 mmHg 41%
    15:00 +37°C° 0 mm 4 mps 756 mmHg 43%
    16:00 +36°C° 0 mm 5 mps 755 mmHg 45%
    17:00 +35°C° 0 mm 5 mps 756 mmHg 50%
    18:00 +34°C° 0 mm 6 mps 757 mmHg 55%
    19:00 +32°C° 0 mm 6 mps 757 mmHg 60%
    20:00 +32°C° 0 mm 6 mps 758 mmHg 60%
    21:00 +30°C° 0 mm 5 mps 759 mmHg 60%
    22:00 +30°C° 0 mm 5 mps 759 mmHg 61%
    23:00 +29°C° 0 mm 4 mps 759 mmHg 62%

    Day after tomorrow, 21 January, Monday

    Time Temperature Precipitation Wind Pressure Humidity
    00:00 +29°C° 0 mm 4 mps 759 mmHg 64%
    01:00 +29°C° 0 mm 3 mps 758 mmHg 66%
    02:00 +28°C° 0 mm 3 mps 758 mmHg 67%
    03:00 +28°C° 0 mm 3 mps 758 mmHg 68%
    04:00 +28°C° 0 mm 3 mps 758 mmHg 69%
    05:00 +28°C° 0 mm 2 mps 759 mmHg 68%
    06:00 +28°C° 0 mm 2 mps 759 mmHg 68%
    07:00 +28°C° 0 mm 2 mps 760 mmHg 67%
    08:00 +31°C° 0 mm 2 mps 760 mmHg 60%
    09:00 +33°C° 0 mm 1 mps 761 mmHg 53%
    10:00 +34°C° 0 mm 0 mps 761 mmHg 46%
    11:00 +36°C° 0 mm 1 mps 760 mmHg 45%
    12:00 +37°C° 0 mm 2 mps 759 mmHg 45%
    13:00 +37°C° 0 mm 2 mps 759 mmHg 44%
    14:00 +36°C° 0 mm 3 mps 758 mmHg 45%
    15:00 +36°C° 0 mm 4 mps 758 mmHg 46%
    16:00 +36°C° 0 mm 5 mps 757 mmHg 47%
    17:00 +35°C° 0 mm 5 mps 758 mmHg 51%
    18:00 +34°C° 0 mm 6 mps 758 mmHg 55%
    19:00 +32°C° 0 mm 7 mps 759 mmHg 59%
    20:00 +32°C° 0 mm 6 mps 759 mmHg 60%
    21:00 +30°C° 0 mm 6 mps 760 mmHg 60%
    22:00 +30°C° 0 mm 5 mps 760 mmHg 61%
    23:00 +29°C° 0 mm 5 mps 760 mmHg 62%

    22 January, Tuesday

    Time Temperature Precipitation Wind Pressure Humidity
    00:00 +29°C° 0 mm 5 mps 760 mmHg 63%
    01:00 +28°C° 0 mm 4 mps 759 mmHg 64%
    02:00 +28°C° 0 mm 4 mps 759 mmHg 65%
    03:00 +27°C° 0 mm 4 mps 759 mmHg 67%
    04:00 +27°C° 0 mm 4 mps 759 mmHg 68%
    05:00 +27°C° 0 mm 4 mps 759 mmHg 67%
    06:00 +27°C° 0 mm 3 mps 760 mmHg 66%
    07:00 +27°C° 0 mm 3 mps 760 mmHg 65%
    08:00 +30°C° 0 mm 2 mps 761 mmHg 57%
    09:00 +34°C° 0 mm 2 mps 761 mmHg 49%
    10:00 +35°C° 0 mm 1 mps 761 mmHg 41%
    11:00 +35°C° 0 mm 1 mps 760 mmHg 40%
    12:00 +37°C° 0 mm 2 mps 759 mmHg 39%
    13:00 +37°C° 0 mm 3 mps 758 mmHg 38%
    14:00 +37°C° 0 mm 3 mps 758 mmHg 40%
    15:00 +36°C° 0 mm 4 mps 757 mmHg 42%
    16:00 +36°C° 0 mm 4 mps 757 mmHg 44%
    17:00 +34°C° 0 mm 5 mps 757 mmHg 47%
    18:00 +33°C° 0 mm 6 mps 758 mmHg 51%
    19:00 +32°C° 0 mm 7 mps 759 mmHg 54%
    20:00 +32°C° 0 mm 7 mps 759 mmHg 54%
    21:00 +30°C° 0 mm 7 mps 760 mmHg 55%
    22:00 +30°C° 0 mm 7 mps 760 mmHg 55%
    23:00 +29°C° 0 mm 6 mps 760 mmHg 58%

    23 January, Wednesday

    Time Temperature Precipitation Wind Pressure Humidity
    00:00 +28°C° 0 mm 5 mps 760 mmHg 61%
    01:00 +28°C° 0 mm 5 mps 760 mmHg 64%
    02:00 +28°C° 0 mm 4 mps 759 mmHg 64%
    03:00 +27°C° 0 mm 3 mps 759 mmHg 64%
    04:00 +27°C° 0 mm 3 mps 759 mmHg 64%
    05:00 +27°C° 0 mm 3 mps 759 mmHg 63%
    06:00 +28°C° 0 mm 3 mps 760 mmHg 62%
    07:00 +28°C° 0 mm 2 mps 760 mmHg 62%
    08:00 +30°C° 0 mm 2 mps 760 mmHg 54%
    09:00 +32°C° 0 mm 2 mps 760 mmHg 47%
    10:00 +35°C° 0 mm 1 mps 760 mmHg 40%
    11:00 +37°C° 0 mm 2 mps 760 mmHg 38%
    12:00 +37°C° 0 mm 2 mps 759 mmHg 36%
    13:00 +38°C° 0 mm 3 mps 758 mmHg 35%
    14:00 +38°C° 0 mm 3 mps 757 mmHg 36%
    15:00 +37°C° 0 mm 3 mps 756 mmHg 38%
    16:00 +36°C° 0 mm 4 mps 756 mmHg 40%
    17:00 +35°C° 0 mm 4 mps 756 mmHg 43%
    18:00 +34°C° 0 mm 5 mps 757 mmHg 45%
    19:00 +32°C° 0 mm 5 mps 758 mmHg 48%
    20:00 +32°C° 0 mm 5 mps 758 mmHg 49%
    21:00 +30°C° 0 mm 5 mps 759 mmHg 50%
    22:00 +30°C° 0 mm 6 mps 759 mmHg 50%
    23:00 +29°C° 0 mm 5 mps 759 mmHg 54%

    24 January, Thursday

    Time Temperature Precipitation Wind Pressure Humidity
    00:00 +29°C° 0 mm 4 mps 759 mmHg 57%
    01:00 +28°C° 0 mm 4 mps 758 mmHg 60%
    02:00 +28°C° 0 mm 3 mps 758 mmHg 62%
    03:00 +27°C° 0 mm 3 mps 758 mmHg 64%
    04:00 +27°C° 0 mm 2 mps 758 mmHg 66%
    05:00 +27°C° 0 mm 2 mps 758 mmHg 65%
    06:00 +27°C° 0 mm 2 mps 759 mmHg 65%
    07:00 +28°C° 0 mm 2 mps 759 mmHg 65%
    08:00 +30°C° 0 mm 2 mps 759 mmHg 58%
    09:00 +33°C° 0 mm 1 mps 759 mmHg 51%
    10:00 +35°C° 0 mm 1 mps 759 mmHg 44%
    11:00 +37°C° 0 mm 2 mps 758 mmHg 42%
    12:00 +37°C° 0 mm 2 mps 757 mmHg 40%
    13:00 +38°C° 0 mm 3 mps 757 mmHg 38%
    14:00 +38°C° 0 mm 3 mps 756 mmHg 40%
    15:00 +37°C° 0 mm 3 mps 756 mmHg 41%
    16:00 +37°C° 0 mm 4 mps 755 mmHg 42%
    17:00 +35°C° 0 mm 4 mps 756 mmHg 47%
    18:00 +34°C° 0 mm 4 mps 756 mmHg 51%
    19:00 +32°C° 0 mm 4 mps 757 mmHg 56%
    20:00 +32°C° 0 mm 4 mps 757 mmHg 57%
    21:00 +32°C° 0 mm 4 mps 758 mmHg 57%
    22:00 +30°C° 0 mm 4 mps 758 mmHg 57%
    23:00 +30°C° 0 mm 3 mps 758 mmHg 60%
    Show more